[[{"header":{"parameterUnit":"m.s-1","parameterCategory":1,"la1":30.2991,"la2":30.254,"lo1":-89.0895,"lo2":-89.0444,"dy":0.0017,"dx":0.0017,"nx":28,"ny":28,"refTime":"2024-03-25T09:00:00:Z","depth":0,"parameterNumber":2,"parameterNumberName":"U-component_of_WINDS"},"data":[0,0,0,0,0,0,0,0,0,0,0,0,0,0,0,0,0,0,0,0,0,0,0,0,0,0,0,0,0,0,0,0,0,0,0,0,0,0,0,0,0,0,0,0,0,0,0,0,0,0,0,0,0,0,0,0,0,0,0.54,0.5401,0,0.5439,0.5439,0.544,0.545,0.5449,0.5449,0.5449,0.5492,0.5493,0.5495,0,0,0,0,0,0,0,0,0,0,0,0,0,0.5339,0.534,0.54,0.5401,0.5401,0.5439,0.5439,0.544,0.545,0.5449,0.5449,0.5449,0.5491,0.5493,0.5495,0,0,0,0,0,0,0,0,0,0,0,0,0,0.5371,0.5341,0.54,0.5411,0.5412,0.5438,0.5439,0.544,0.545,0.5449,0.5449,0.5449,0.5491,0.5493,0.5495,0.5515,0,0,0.5501,0.5502,0,0,0,0,0,0,0,0,0.5369,0.5373,0.5409,0.541,0.5412,0.5439,0.5433,0.5465,0.545,0.5436,0.5449,0.5448,0.5475,0.5478,0.5486,0.5517,0.5519,0.5501,0.5503,0.5504,0.5504,0,0,0,0,0,0,0,0.5367,0.5371,0.5416,0.5409,0.5411,0.5415,0.5419,0.5439,0.5457,0.5437,0.5438,0.5442,0.5476,0.5484,0.5487,0.5519,0.5501,0.5503,0.5505,0.5505,0.5568,0.5569,0,0,0,0,0,0,0.5362,0.5369,0.5414,0.5417,0.5389,0.5416,0.542,0.5431,0.5457,0.546,0.5442,0.5442,0.5481,0.5485,0.5489,0.5514,0.5504,0.5506,0.5507,0.5568,0.5568,0.5569,0,0,0,0,0,0,0.5361,0.5366,0.5413,0.5393,0.5399,0.5417,0.5429,0.5431,0.544,0.5461,0.5464,0.5447,0.5481,0.5486,0.5508,0.5516,0.5506,0.5508,0.5567,0.5568,0.5569,0.5564,0,0,0,0,0,0,0.5359,0.5366,0.5373,0.5393,0.54,0.543,0.5429,0.5433,0.5443,0.5444,0.5467,0.547,0.5481,0.5505,0.551,0.5518,0.551,0.5567,0.5568,0.5568,0.5563,0.5564,0.5565,0,0,0,0,0,0.5357,0.5371,0.5373,0.5378,0.5409,0.5431,0.5435,0.5446,0.5444,0.5451,0.5464,0.5469,0.5514,0.5507,0.5513,0.5522,0.5566,0.5567,0.5568,0.5563,0.5564,0.5565,0,0,0,0,0,0,0.5352,0.5374,0.5376,0.5397,0.5412,0.5432,0.5442,0.5447,0.5464,0.5463,0.5478,0.5483,0.5504,0.5515,0.5507,0.5542,0.554,0.5542,0.5534,0.5535,0.5536,0.5533,0.5512,0,0,0,0,0,0.5353,0.5367,0.5386,0.5402,0.5409,0.5424,0.5434,0.5441,0.5458,0.5464,0.5479,0.5496,0.5514,0.5525,0.5543,0.5565,0.557,0.5574,0.5575,0.5575,0.5577,0.559,0.5592,0.5572,0.5572,0.5572,0,0,0.5356,0.5369,0.5378,0.5402,0.5414,0.5429,0.543,0.5446,0.5458,0.5467,0.5489,0.55,0.552,0.5542,0.5553,0.5552,0.5584,0.5577,0.5577,0.5579,0.5591,0.5593,0.5595,0.5573,0.5573,0.5573,0,0,0.5368,0.538,0.5395,0.5407,0.5425,0.5435,0.5438,0.5458,0.5465,0.5487,0.5494,0.5509,0.5539,0.5552,0.5563,0.5581,0.5586,0.5586,0.559,0.5602,0.5604,0.5605,0.5612,0.5614,0.5588,0.5588,0.5588,0,0.537,0.5392,0.5402,0.5418,0.5428,0.5436,0.5451,0.5463,0.5487,0.5494,0.5493,0.553,0.5544,0.557,0.5574,0.5582,0.5587,0.5584,0.5603,0.5604,0.5606,0.5612,0.5614,0.5588,0.5588,0.5588,0.5588,0,0.5393,0.5409,0.5419,0.5439,0.5451,0.5467,0.548,0.5491,0.5497,0.5507,0.5529,0.5545,0.5566,0.5573,0.5579,0.5599,0.5598,0.56,0.5598,0.5607,0.5613,0.5616,0.5588,0.5588,0.5588,0.5588,0,0,0.5405,0.543,0.5433,0.5443,0.5463,0.5475,0.5492,0.5511,0.552,0.5536,0.555,0.5575,0.5576,0.5588,0.5597,0.5607,0.562,0.5607,0.5608,0.5609,0.5643,0.5641,0.5644,0.5623,0.5624,0.5624,0.5641,0,0.542,0.5448,0.5457,0.548,0.5495,0.5502,0.5516,0.5531,0.5541,0.5555,0.5567,0.5584,0.5584,0.5592,0.5603,0.5616,0.5627,0.5615,0.5637,0.5638,0.5632,0.5647,0.5646,0.5661,0.5643,0.5644,0.5644,0,0.5442,0.5456,0.5481,0.5498,0.5505,0.5517,0.5535,0.5549,0.5566,0.5572,0.5585,0.5593,0.5611,0.5607,0.5633,0.5624,0.5634,0.5642,0.5643,0.5646,0.5642,0.565,0.5666,0.5668,0.5648,0.5648,0.5647,0,0.5448,0.5473,0.5491,0.5499,0.552,0.5529,0.5538,0.5554,0.5565,0.5581,0.5588,0.5607,0.5617,0.5632,0.5644,0.564,0.5668,0.5666,0.5675,0.5674,0.5681,0.568,0.5698,0.5687,0.5687,0.5687,0.5687,0,0.5464,0.5479,0.5494,0.5505,0.5522,0.5533,0.5549,0.556,0.5574,0.5588,0.5595,0.5608,0.5624,0.5639,0.5649,0.5668,0.5673,0.5679,0.5682,0.5679,0.5678,0.5686,0.5685,0.5687,0.5687,0.5687,0.5687,0,0.5473,0.5484,0.5504,0.5522,0.5527,0.5538,0.5554,0.5566,0.5576,0.5593,0.5598,0.5614,0.5632,0.5646,0.567,0.5676,0.5697,0.57,0.5691,0.5693,0.5701,0.57,0.5725,0.5729,0.5714,0.5714,0.5714,0,0.5483,0.5495,0.5513,0.5522,0.5531,0.5546,0.5556,0.5567,0.5578,0.5598,0.5607,0.5625,0.5641,0.567,0.5684,0.5703,0.5706,0.5714,0.5709,0.5705,0.5706,0.5705,0.5707,0.5714,0.5714,0.5715,0.5715,0,0.55,0.5504,0.5518,0.5534,0.5546,0.5559,0.5573,0.558,0.5594,0.5606,0.5623,0.5635,0.5659,0.5678,0.5697,0.5708,0.5714,0.5716,0.5719,0.5716,0.571,0.5713,0.5693,0.5715,0.5715,0.5715,0.5715,0.5715,0.551,0.552,0.5534,0.555,0.5561,0.5573,0.5584,0.5595,0.561,0.5629,0.5635,0.5653,0.567,0.5697,0.5708,0.5723,0.5723,0.5728,0.5729,0.573,0.573,0.5707,0.5727,0.5727,0.5727,0.5727,0.5727,0,0.5526,0.5536,0.555,0.5567,0.558,0.5582,0.5597,0.5608,0.5623,0.5638,0.5652,0.5673,0.5691,0.5706,0.5725,0.5734,0.5737,0.5739,0.5738,0.5741,0.5729,0.5724,0.5736,0.5736,0.5736,0.5736,0.5736,0.5736,0.5537,0.5554,0.556,0.5583,0.5592,0.5609,0.5618,0.5629,0.5641,0.5663,0.5677,0.5686,0.5701,0.5721,0.5738,0.5742,0.5748,0.5749,0.5754,0.5743,0.5742,0.5741,0.5736,0.5751,0.5751,0.5765,0.5765,0.5765]},{"header":{"parameterUnit":"m.s-1","parameterCategory":1,"la1":30.2991,"la2":30.254,"lo1":-89.0895,"lo2":-89.0444,"dy":0.0017,"dx":0.0017,"nx":28,"ny":28,"refTime":"2024-03-25T09:00:00:Z","depth":0,"parameterNumber":3,"parameterNumberName":"V-component_of_WINDS"},"data":[0,0,0,0,0,0,0,0,0,0,0,0,0,0,0,0,0,0,0,0,0,0,0,0,0,0,0,0,0,0,0,0,0,0,0,0,0,0,0,0,0,0,0,0,0,0,0,0,0,0,0,0,0,0,0,0,0,0,-0.1182,-0.1183,0,-0.1226,-0.1226,-0.1227,-0.1263,-0.1263,-0.1263,-0.1264,-0.131,-0.1311,-0.1312,0,0,0,0,0,0,0,0,0,0,0,0,0,-0.1132,-0.1133,-0.1182,-0.1183,-0.1183,-0.1226,-0.1226,-0.1227,-0.1263,-0.1263,-0.1263,-0.1264,-0.131,-0.1311,-0.1312,0,0,0,0,0,0,0,0,0,0,0,0,0,-0.1163,-0.1133,-0.1182,-0.1206,-0.1209,-0.1226,-0.1226,-0.1227,-0.1262,-0.1263,-0.1264,-0.1264,-0.1309,-0.1311,-0.1312,-0.1309,0,0,-0.1316,-0.1317,0,0,0,0,0,0,0,0,-0.1161,-0.1165,-0.1202,-0.1205,-0.1207,-0.1239,-0.1226,-0.1255,-0.1262,-0.1242,-0.1264,-0.1264,-0.1286,-0.1289,-0.1296,-0.1311,-0.1313,-0.1316,-0.1317,-0.1318,-0.1318,0,0,0,0,0,0,0,-0.1159,-0.1163,-0.12,-0.1203,-0.1206,-0.1216,-0.122,-0.1231,-0.1261,-0.1244,-0.1247,-0.1251,-0.1288,-0.1295,-0.1298,-0.1314,-0.1316,-0.1317,-0.1318,-0.1319,-0.133,-0.1329,0,0,0,0,0,0,-0.1153,-0.1161,-0.1198,-0.1201,-0.1185,-0.1216,-0.1222,-0.1229,-0.1261,-0.1266,-0.1251,-0.1253,-0.1293,-0.1296,-0.13,-0.1299,-0.1318,-0.1319,-0.132,-0.133,-0.133,-0.1329,0,0,0,0,0,0,-0.1151,-0.1156,-0.1196,-0.1182,-0.1188,-0.1216,-0.1224,-0.1229,-0.1236,-0.1266,-0.1271,-0.1253,-0.1293,-0.1298,-0.1307,-0.1301,-0.1319,-0.1321,-0.1331,-0.133,-0.133,-0.1297,0,0,0,0,0,0,-0.115,-0.1155,-0.1154,-0.1181,-0.1188,-0.1202,-0.1223,-0.123,-0.1238,-0.1241,-0.1269,-0.1274,-0.1294,-0.1304,-0.1308,-0.1303,-0.1322,-0.1332,-0.1331,-0.133,-0.1299,-0.1295,-0.1293,0,0,0,0,0,-0.1148,-0.1143,-0.1153,-0.1158,-0.1187,-0.1201,-0.1205,-0.1228,-0.1238,-0.1237,-0.1256,-0.1273,-0.1301,-0.1305,-0.1309,-0.1305,-0.1332,-0.1331,-0.133,-0.13,-0.1296,-0.1293,0,0,0,0,0,0,-0.1114,-0.1147,-0.1159,-0.1162,-0.1179,-0.1207,-0.1207,-0.1223,-0.1237,-0.1239,-0.1267,-0.1273,-0.1279,-0.1293,-0.1297,-0.1304,-0.1319,-0.1319,-0.1295,-0.1291,-0.1288,-0.1285,-0.1323,0,0,0,0,0,-0.1107,-0.1115,-0.1144,-0.1144,-0.1152,-0.1178,-0.1185,-0.1201,-0.1219,-0.1227,-0.1246,-0.1264,-0.1277,-0.1285,-0.1298,-0.1301,-0.1308,-0.13,-0.1297,-0.1294,-0.1294,-0.1297,-0.1295,-0.1326,-0.1326,-0.1326,0,0,-0.1092,-0.1111,-0.1115,-0.1138,-0.1153,-0.1162,-0.1184,-0.1192,-0.1199,-0.1228,-0.1238,-0.1253,-0.1275,-0.1281,-0.1284,-0.1292,-0.1287,-0.1293,-0.1291,-0.1292,-0.1296,-0.1293,-0.129,-0.1325,-0.1325,-0.1325,0,0,-0.1071,-0.1085,-0.1088,-0.1102,-0.1124,-0.1141,-0.1142,-0.1168,-0.1179,-0.1189,-0.1212,-0.1221,-0.1242,-0.1257,-0.1268,-0.1252,-0.1269,-0.1256,-0.1239,-0.1243,-0.124,-0.1238,-0.1233,-0.1231,-0.1255,-0.1255,-0.1255,0,-0.105,-0.1064,-0.1087,-0.1094,-0.1104,-0.1131,-0.1134,-0.1147,-0.1172,-0.1179,-0.1187,-0.1215,-0.1232,-0.1242,-0.1238,-0.1246,-0.1248,-0.1253,-0.1238,-0.1237,-0.1235,-0.1231,-0.1229,-0.1254,-0.1254,-0.1254,-0.1254,0,-0.1038,-0.1047,-0.1046,-0.107,-0.1079,-0.1084,-0.111,-0.1117,-0.1132,-0.1149,-0.116,-0.118,-0.1199,-0.1203,-0.1218,-0.1216,-0.122,-0.1233,-0.1248,-0.123,-0.1227,-0.1225,-0.1251,-0.1252,-0.1252,-0.1253,0,0,-0.0995,-0.1032,-0.1031,-0.1043,-0.1069,-0.1077,-0.1084,-0.1102,-0.1108,-0.1124,-0.1131,-0.1149,-0.1162,-0.1174,-0.1191,-0.1193,-0.1181,-0.1207,-0.1208,-0.1202,-0.1181,-0.1171,-0.1169,-0.1192,-0.1192,-0.1192,-0.1179,0,-0.0978,-0.0991,-0.1013,-0.1019,-0.1029,-0.1054,-0.1061,-0.1078,-0.1094,-0.1105,-0.1123,-0.1136,-0.1151,-0.1158,-0.1162,-0.1182,-0.1177,-0.1183,-0.12,-0.12,-0.1194,-0.1167,-0.1156,-0.1143,-0.1178,-0.1178,-0.1178,0,-0.096,-0.0975,-0.0982,-0.1008,-0.1013,-0.1018,-0.1036,-0.1046,-0.1067,-0.1078,-0.1092,-0.1111,-0.112,-0.1134,-0.1148,-0.1151,-0.116,-0.1171,-0.1171,-0.1173,-0.1188,-0.1169,-0.114,-0.1138,-0.1176,-0.1176,-0.1176,0,-0.0929,-0.0951,-0.0958,-0.0967,-0.0998,-0.1001,-0.1014,-0.1035,-0.1045,-0.1061,-0.1068,-0.1085,-0.1095,-0.1108,-0.1132,-0.1139,-0.1144,-0.1159,-0.1155,-0.1154,-0.1155,-0.1154,-0.1126,-0.1159,-0.1159,-0.1159,-0.1159,0,-0.0908,-0.0911,-0.0945,-0.0949,-0.0954,-0.098,-0.0984,-0.1,-0.1019,-0.1028,-0.1051,-0.1059,-0.1089,-0.1101,-0.1119,-0.1129,-0.1133,-0.1143,-0.1148,-0.1142,-0.114,-0.1148,-0.1149,-0.1159,-0.1159,-0.1159,-0.1159,0,-0.0874,-0.0897,-0.0907,-0.0935,-0.0942,-0.0945,-0.097,-0.0975,-0.0993,-0.1004,-0.1008,-0.1036,-0.1051,-0.1076,-0.1098,-0.1111,-0.1117,-0.1125,-0.111,-0.1113,-0.1107,-0.1107,-0.1083,-0.1082,-0.1115,-0.1115,-0.1114,0,-0.0859,-0.0863,-0.0891,-0.0899,-0.0911,-0.0922,-0.0932,-0.0958,-0.0967,-0.0991,-0.0994,-0.1011,-0.1026,-0.1049,-0.1072,-0.109,-0.1099,-0.1089,-0.1101,-0.1095,-0.1099,-0.1099,-0.11,-0.1086,-0.1086,-0.1085,-0.1085,0,-0.0831,-0.0842,-0.0855,-0.0872,-0.0883,-0.0897,-0.0913,-0.0918,-0.0948,-0.0957,-0.0973,-0.0984,-0.1007,-0.1024,-0.1045,-0.106,-0.1077,-0.1081,-0.1081,-0.1074,-0.1065,-0.107,-0.1102,-0.1081,-0.1082,-0.1082,-0.1082,-0.1082,-0.0807,-0.0811,-0.0832,-0.0846,-0.0861,-0.0875,-0.0882,-0.0901,-0.0914,-0.0934,-0.0949,-0.0963,-0.0985,-0.1015,-0.1029,-0.1041,-0.1049,-0.1049,-0.1049,-0.1049,-0.1046,-0.1063,-0.1045,-0.1045,-0.1045,-0.1046,-0.1046,0,-0.078,-0.0795,-0.0807,-0.0829,-0.084,-0.0855,-0.0874,-0.0882,-0.0895,-0.0913,-0.0927,-0.0945,-0.0962,-0.0986,-0.1005,-0.101,-0.1019,-0.1015,-0.1015,-0.1018,-0.1038,-0.1036,-0.1007,-0.1007,-0.1007,-0.1007,-0.1007,-0.1007,-0.0767,-0.0775,-0.0789,-0.0806,-0.0821,-0.0835,-0.0844,-0.0858,-0.0873,-0.0892,-0.0906,-0.0921,-0.0943,-0.0963,-0.0979,-0.0986,-0.0992,-0.0985,-0.0995,-0.1013,-0.1016,-0.102,-0.1018,-0.0986,-0.0986,-0.0974,-0.0974,-0.0974]}]]